• In Deutschland
  • Länderverzeichnis
  • Für 7 Tage
  • Wassertemperatur
  • Satellitenkarten
  • Wetterkarte
  • Widgets
  • user-avatar
    Anmelden

    Stündliche Wetter Barra

    Heute, 24 September, Sonntag

    Zeit Temperatur Niederschläge Wind Luftdruck Luftfeuchtigkeit
    00:00 +21°C° 0 mm 1 m/S 750 mmHg 96%
    01:00 +21°C° 0 mm 1 m/S 750 mmHg 96%
    02:00 +21°C° 0 mm 1 m/S 750 mmHg 95%
    03:00 +21°C° 0 mm 1 m/S 750 mmHg 94%
    04:00 +21°C° 0 mm 1 m/S 750 mmHg 94%
    05:00 +21°C° 0 mm 1 m/S 750 mmHg 92%
    06:00 +21°C° 0 mm 1 m/S 751 mmHg 91%
    07:00 +20°C° 0 mm 2 m/S 751 mmHg 89%
    08:00 +24°C° 0 mm 2 m/S 751 mmHg 77%
    09:00 +26°C° 0 mm 2 m/S 751 mmHg 65%
    10:00 +28°C° 0 mm 2 m/S 751 mmHg 54%
    11:00 +29°C° 0 mm 3 m/S 751 mmHg 50%
    12:00 +30°C° 0 mm 3 m/S 750 mmHg 46%
    13:00 +31°C° 0 mm 3 m/S 749 mmHg 42%
    14:00 +30°C° 0 mm 3 m/S 749 mmHg 45%
    15:00 +29°C° 0 mm 3 m/S 749 mmHg 47%
    16:00 +29°C° 0 mm 3 m/S 748 mmHg 49%
    17:00 +26°C° 0 mm 2 m/S 749 mmHg 60%
    18:00 +24°C° 0 mm 2 m/S 749 mmHg 71%
    19:00 +22°C° 0 mm 1 m/S 749 mmHg 82%
    20:00 +21°C° 0 mm 1 m/S 750 mmHg 85%
    21:00 +21°C° 0 mm 1 m/S 750 mmHg 89%
    22:00 +20°C° 0 mm 1 m/S 750 mmHg 93%
    23:00 +20°C° 0 mm 1 m/S 750 mmHg 93%

    Morgen, 25 September, Montag

    Zeit Temperatur Niederschläge Wind Luftdruck Luftfeuchtigkeit
    00:00 +20°C° 0 mm 1 m/S 750 mmHg 94%
    01:00 +19°C° 0 mm 1 m/S 750 mmHg 95%
    02:00 +20°C° 0 mm 1 m/S 750 mmHg 96%
    03:00 +20°C° 0 mm 1 m/S 749 mmHg 96%
    04:00 +20°C° 0 mm 1 m/S 749 mmHg 97%
    05:00 +20°C° 0 mm 1 m/S 750 mmHg 95%
    06:00 +20°C° 0 mm 1 m/S 750 mmHg 94%
    07:00 +21°C° 0 mm 1 m/S 751 mmHg 92%
    08:00 +23°C° 0 mm 1 m/S 751 mmHg 79%
    09:00 +26°C° 0 mm 2 m/S 751 mmHg 65%
    10:00 +28°C° 0 mm 2 m/S 751 mmHg 52%
    11:00 +29°C° 0 mm 2 m/S 751 mmHg 48%
    12:00 +30°C° 0 mm 2 m/S 750 mmHg 45%
    13:00 +31°C° 0 mm 3 m/S 749 mmHg 41%
    14:00 +30°C° 0 mm 3 m/S 749 mmHg 43%
    15:00 +30°C° 0 mm 3 m/S 749 mmHg 44%
    16:00 +29°C° 0 mm 2 m/S 748 mmHg 46%
    17:00 +27°C° 0 mm 2 m/S 749 mmHg 56%
    18:00 +24°C° 0 mm 2 m/S 749 mmHg 67%
    19:00 +22°C° 0 mm 1 m/S 749 mmHg 78%
    20:00 +21°C° 0 mm 1 m/S 750 mmHg 82%
    21:00 +20°C° 0 mm 1 m/S 750 mmHg 86%
    22:00 +20°C° 0 mm 1 m/S 751 mmHg 90%
    23:00 +19°C° 0 mm 1 m/S 750 mmHg 91%

    übermorgen, 26 September, Dienstag

    Zeit Temperatur Niederschläge Wind Luftdruck Luftfeuchtigkeit
    00:00 +19°C° 0 mm 1 m/S 750 mmHg 92%
    01:00 +19°C° 0 mm 1 m/S 750 mmHg 93%
    02:00 +19°C° 0 mm 1 m/S 750 mmHg 94%
    03:00 +18°C° 0 mm 1 m/S 750 mmHg 95%
    04:00 +16°C° 0 mm 0 m/S 749 mmHg 96%
    05:00 +19°C° 0 mm 1 m/S 750 mmHg 95%
    06:00 +19°C° 0 mm 1 m/S 750 mmHg 93%
    07:00 +20°C° 0 mm 1 m/S 751 mmHg 91%
    08:00 +23°C° 0 mm 1 m/S 751 mmHg 77%
    09:00 +26°C° 0 mm 1 m/S 751 mmHg 63%
    10:00 +29°C° 0 mm 2 m/S 751 mmHg 49%
    11:00 +30°C° 0 mm 2 m/S 751 mmHg 46%
    12:00 +31°C° 0 mm 2 m/S 750 mmHg 42%
    13:00 +32°C° 0 mm 2 m/S 750 mmHg 39%
    14:00 +31°C° 0 mm 2 m/S 749 mmHg 42%
    15:00 +30°C° 0 mm 2 m/S 749 mmHg 45%
    16:00 +30°C° 0 mm 3 m/S 748 mmHg 48%
    17:00 +27°C° 0 mm 2 m/S 749 mmHg 60%
    18:00 +25°C° 0 mm 2 m/S 749 mmHg 73%
    19:00 +21°C° 0 mm 2 m/S 749 mmHg 85%
    20:00 +22°C° 0 mm 1 m/S 750 mmHg 88%
    21:00 +21°C° 0 mm 1 m/S 750 mmHg 91%
    22:00 +21°C° 0 mm 1 m/S 751 mmHg 93%
    23:00 +21°C° 0 mm 1 m/S 750 mmHg 94%

    27 September, Mittwoch

    Zeit Temperatur Niederschläge Wind Luftdruck Luftfeuchtigkeit
    00:00 +21°C° 0 mm 1 m/S 750 mmHg 95%
    01:00 +21°C° 0 mm 1 m/S 750 mmHg 96%
    02:00 +21°C° 0 mm 1 m/S 750 mmHg 96%
    03:00 +21°C° 0 mm 1 m/S 750 mmHg 96%
    04:00 +20°C° 0 mm 1 m/S 750 mmHg 96%
    05:00 +21°C° 0 mm 1 m/S 750 mmHg 94%
    06:00 +21°C° 0 mm 1 m/S 751 mmHg 92%
    07:00 +22°C° 0 mm 1 m/S 751 mmHg 91%
    08:00 +24°C° 0 mm 1 m/S 751 mmHg 79%
    09:00 +26°C° 0 mm 2 m/S 751 mmHg 67%
    10:00 +28°C° 0 mm 2 m/S 752 mmHg 54%
    11:00 +29°C° 0 mm 2 m/S 751 mmHg 50%
    12:00 +31°C° 0 mm 2 m/S 750 mmHg 46%
    13:00 +32°C° 0 mm 2 m/S 750 mmHg 41%
    14:00 +31°C° 0 mm 2 m/S 749 mmHg 43%
    15:00 +30°C° 0 mm 2 m/S 749 mmHg 46%
    16:00 +30°C° 0 mm 3 m/S 748 mmHg 48%
    17:00 +27°C° 0 mm 2 m/S 749 mmHg 59%
    18:00 +25°C° 0 mm 2 m/S 749 mmHg 70%
    19:00 +23°C° 0 mm 2 m/S 750 mmHg 81%
    20:00 +22°C° 0 mm 1 m/S 750 mmHg 85%
    21:00 +21°C° 0 mm 1 m/S 750 mmHg 89%
    22:00 +21°C° 0 mm 1 m/S 751 mmHg 92%
    23:00 +21°C° 0 mm 1 m/S 750 mmHg 93%

    28 September, Donnerstag

    Zeit Temperatur Niederschläge Wind Luftdruck Luftfeuchtigkeit
    00:00 +21°C° 0 mm 1 m/S 750 mmHg 94%
    01:00 +20°C° 0 mm 1 m/S 750 mmHg 95%
    02:00 +20°C° 0 mm 1 m/S 750 mmHg 95%
    03:00 +20°C° 0 mm 1 m/S 750 mmHg 95%
    04:00 +20°C° 0 mm 1 m/S 750 mmHg 96%
    05:00 +21°C° 0 mm 1 m/S 750 mmHg 94%
    06:00 +20°C° 0 mm 2 m/S 750 mmHg 92%
    07:00 +21°C° 0 mm 2 m/S 751 mmHg 90%
    08:00 +24°C° 0 mm 2 m/S 751 mmHg 81%
    09:00 +26°C° 0 mm 2 m/S 751 mmHg 72%
    10:00 +28°C° 0 mm 2 m/S 751 mmHg 63%
    11:00 +29°C° 0 mm 2 m/S 750 mmHg 58%
    12:00 +30°C° 0 mm 2 m/S 749 mmHg 53%
    13:00 +32°C° 0 mm 2 m/S 749 mmHg 48%
    14:00 +31°C° 0 mm 3 m/S 748 mmHg 51%
    15:00 +30°C° 0 mm 3 m/S 748 mmHg 53%
    16:00 +30°C° 0 mm 3 m/S 748 mmHg 56%
    17:00 +27°C° 0 mm 3 m/S 748 mmHg 65%
    18:00 +25°C° 0 mm 2 m/S 749 mmHg 74%
    19:00 +23°C° 0 mm 2 m/S 749 mmHg 83%
    20:00 +23°C° 0 mm 2 m/S 749 mmHg 85%
    21:00 +21°C° 0 mm 2 m/S 750 mmHg 87%
    22:00 +21°C° 0 mm 2 m/S 750 mmHg 89%
    23:00 +21°C° 0 mm 2 m/S 750 mmHg 88%

    29 September, Freitag

    Zeit Temperatur Niederschläge Wind Luftdruck Luftfeuchtigkeit
    00:00 +21°C° 0 mm 2 m/S 750 mmHg 88%
    01:00 +21°C° 0 mm 2 m/S 750 mmHg 87%
    02:00 +22°C° 0 mm 1 m/S 750 mmHg 89%
    03:00 +21°C° 0 mm 1 m/S 750 mmHg 91%
    04:00 +20°C° 0 mm 1 m/S 750 mmHg 93%
    05:00 +21°C° 0 mm 1 m/S 750 mmHg 92%
    06:00 +21°C° 0 mm 1 m/S 751 mmHg 91%
    07:00 +21°C° 0 mm 1 m/S 751 mmHg 89%
    08:00 +24°C° 0 mm 1 m/S 751 mmHg 76%
    09:00 +27°C° 0 mm 2 m/S 751 mmHg 63%
    10:00 +29°C° 0 mm 2 m/S 751 mmHg 50%
    11:00 +30°C° 0 mm 2 m/S 751 mmHg 47%
    12:00 +31°C° 0 mm 3 m/S 750 mmHg 44%
    13:00 +33°C° 0 mm 3 m/S 749 mmHg 42%
    14:00 +31°C° 0 mm 3 m/S 749 mmHg 44%
    15:00 +30°C° 0 mm 3 m/S 749 mmHg 47%
    16:00 +29°C° 0 mm 3 m/S 748 mmHg 49%
    17:00 +27°C° 0 mm 2 m/S 749 mmHg 59%
    18:00 +25°C° 0 mm 2 m/S 749 mmHg 69%
    19:00 +21°C° 0 mm 2 m/S 750 mmHg 79%
    20:00 +21°C° 0 mm 2 m/S 750 mmHg 83%
    21:00 +20°C° 0 mm 2 m/S 751 mmHg 87%
    22:00 +20°C° 0 mm 1 m/S 751 mmHg 91%
    23:00 +20°C° 0 mm 1 m/S 751 mmHg 92%
    Mehr zeigen